Weather Roundup
Issued by NWS Chicago, IL

Home | Current Version | Previous Version | Text Only | Print | Product List | Glossary Off
Versions: 1 2 3 4 5 6 7 8 9 10 11 12 13 14 15 16 17 18 19 20 21 22 23 24 25 26 27 28 29 30 31 32 33 34 35 36 37 38 39 40 41 42 43 44 45 46 47 48 49 50

000
NZUS59 KLOT 180805
HRRLOT

CHICAGO AREA WEATHER ROUNDUP
NATIONAL WEATHER SERVICE CHICAGO/ROMEOVILLE IL
300 AM CDT WED OCT 18 2017

NOTE: "FAIR" INDICATES FEW OR NO CLOUDS BELOW 12,000 FEET WITH NO
SIGNIFICANT WEATHER AND/OR OBSTRUCTIONS TO VISIBILITY.

* THESE STATIONS ARE NOT UNDER NWS QUALITY CONTROL. THEY ALSO MAY NOT
  REPORT WEATHER SUCH AS PRECIPITATION OR FOG.

ILZ005-006-012>014-019>023-180900-
NORTHEAST ILLINOIS

CITY           SKY/WX    TMP DP  RH WIND       PRES   REMARKS
OHARE          CLEAR     53  40  61 S10       30.14S
MIDWAY         CLEAR     52  40  63 S8        30.16S
AURORA         CLEAR     45  41  86 CALM      30.16R
LANSING*       CLEAR     46  41  83 S3        30.18S
JOLIET*        CLEAR     45  41  88 SE3       30.16S
WAUKEGAN       CLEAR     49  41  74 S6        30.13S
DUPAGE AIRPORT CLEAR     46  41  82 S3        30.14S
WHEELING       CLEAR     53  42  66 S6        30.15S
KANKAKEE*      CLEAR     45  39  80 CALM      30.19S
MORRIS*        CLEAR     44  39  83 S6        30.15S
$$

WIZ051-052-058>065-066-070>072-180900-
SOUTHEAST WISCONSIN

CITY           SKY/WX    TMP DP  RH WIND       PRES   REMARKS
MILWAUKEE      CLEAR     54  42  64 SW10      30.10F
KENOSHA*       CLEAR     50  41  71 SW8       30.12S
RACINE*        CLEAR     51  42  71 SW9       30.12F
WEST BEND      CLEAR     54  39  58 SW8       30.08S
$$

INZ001>003-010>013-019-020-180900-
NORTHWEST INDIANA

CITY           SKY/WX    TMP DP  RH WIND       PRES   REMARKS
GARY*          CLEAR     53  38  57 S5        30.18S
MICHIGAN CITY* NOT AVBL
RENSSELAER*    NOT AVBL
VALPARAISO     CLEAR     43  38  82 CALM      30.20R
$$

LMZ740>746-180900-
SOUTHERN LAKE MICHIGAN

STATION/POSITION TIME  SKY/WX   TEMP WIND        PRES    VSBY
                                AIR  DIR/SP/G
                 (UTC)          (F)  (DEG/KT/KT) (MB)    (MI)
HARRISON CRIB    0740            57  210/ 17/ 19   N/A
BURNHAM HARBOR   0745            54  180/  8/  8   N/A
CALUMET HARBOR   0730            53  170/  4/  5 1020.9R
BURNS HARBOR     0740            53  180/ 11/ 14 1022.4S
MICHIGAN CITY    0740            53  160/ 15/ 17   N/A
$$

ABBREVIATIONS USED IN REMARKS
   TC - TEMPERATURE IN CELSIUS
  WCI - WIND CHILL INDEX
   HX - HEAT INDEX
  VSB - VISIBILITY
$$




USA.gov is the U.S. government's official web portal to all federal, state and local government web resources and services.